Regional Weather Roundup
Issued by NWS Goodland, KS

Home | Current Version | Previous Version | Text Only | Print | Product List | Glossary Off
Versions: 1 2 3 4 5 6 7 8 9 10 11 12 13 14 15 16 17 18 19 20 21 22 23 24 25 26 27 28 29 30 31 32 33 34 35 36 37 38 39 40 41 42 43 44 45 46 47 48 49 50

000
ASUS43 KGLD 161059
RWRGLD

GOODLAND FORECAST AREA HOURLY WEATHER ROUNDUP
NATIONAL WEATHER SERVICE GOODLAND KS
500 AM MDT WED APR 16 2014

...OFFICIAL OBSERVATIONS...

CITY           SKY/WX    TMP DP  RH WIND       PRES   REMARKS
GOODLAND KS    CLEAR     43  31  62 NW15      29.68R
HILL CITY KS   PTCLDY    47  15  27 SW10G24   29.63R
IMPERIAL NEB   PTCLDY    46  31  55 NW16      29.62S
MCCOOK NEB     CLEAR     40  25  55 SW8       29.60S
AKRON CO       CLOUDY    41  30  65 N20       29.74R
BURLINGTON CO  PTCLDY    43  31  62 NW14      29.71R
LIMON CO       PTCLDY    36  29  75 MISG      29.76R
$$

...UNOFFICIAL OBSERVATIONS...

CITY           SKY/WX    TMP DP  RH WIND       PRES   REMARKS
COLBY KS       CLEAR     37  30  75 W10       29.65R
GOVE KS          N/A     43  32  65 CALM        N/A
LENORA KS        N/A     45  32  60 S18         N/A
LEOTI KS         N/A     38  32  78 CALM        N/A
NORTON KS      CLEAR     46  19  34 S15G21    29.61R
SHARON SPRINGS   N/A     46  29  52 N18         N/A
WAKEENEY KS      N/A     47  15  27 MISG        N/A
$$



USA.gov is the U.S. government's official web portal to all federal, state and local government web resources and services.